Other Public Products
Issued by NWS Grand Forks, ND

Home | Current Version | Previous Version | Text Only | Print | Product List | Glossary Off
Versions: 1 2 3 4 5 6 7 8 9 10 11 12 13 14 15 16 17 18 19 20 21 22 23 24 25 26 27 28 29 30 31 32 33 34 35 36 37 38 39 40 41 42 43 44 45 46 47 48 49 50

000
FPUS83 KFGF 292131
OPUFGF
PRAIRIE TO PINES WEATHER ROUNDUP
NATIONAL WEATHER SERVICE EASTERN NORTH DAKOTA/GRAND FORKS ND
400 PM CDT WED JUL 29 2015

 **SATELLITE DATA USED TO AUGMENT SKY COVER AT AUTOMATED STATIONS**
 *****  WEATHER ACROSS EASTERN NORTH DAKOTA  *****

CITY           SKY/WX    TMP DP  RH WIND       PRES   REMARKS
GRAND FORKS    MOSUNNY   80  54  40 W21G35    29.82R
GRAND FORKS AF MOSUNNY   80  56  43 NW16G33   29.84R
GRAND CITY NWS   N/A     79 N/A N/A W28         N/A
BUXTON         NOT AVBL
DEVILS LAKE    MOSUNNY   79  54  41 W24G35    29.90R
FARGO          MOSUNNY   80  54  40 W21G32    29.90R
WAHPETON ARPT  CLEAR     81  45  28 W22G32    29.94R
$$

 *****  WEATHER ACROSS CENTRAL AND WESTERN NORTH DAKOTA  *****

CITY           SKY/WX    TMP DP  RH WIND       PRES   REMARKS
JAMESTOWN      PTSUNNY   81  49  32 NW31G40   29.96R
BISMARCK       PTSUNNY   82  45  27 NW21G29   30.05S
MINOT          MOSUNNY   81  49  32 W23G33    29.97S
MINOT AFB      MOSUNNY   82  53  35 W28G33    29.95S
GARRISON         N/A     78  52  40 W20G30    30.02S
WILLISTON      MOSUNNY   82  47  29 W24G31    30.04F
DICKINSON      MOSUNNY   79  44  28 NW21G29   30.09F
HETTINGER      SUNNY     82  38  20 W20G32    30.14F
$$

 *****  OTHER OBSERVATIONS NORTHEAST NORTH DAKOTA  *****

CITY           SKY/WX    TMP DP  RH WIND       PRES   REMARKS
WALHALLA       FAIR      79  50  36 MISG      29.80R
LANGDON        FAIR      77  54  44 NW24G33   29.86R
CAVALIER       FAIR      79  50  36 NW18G33   29.79R
GRAFTON        FAIR      79  55  44 NW24G45   29.81S
CANDO          FAIR      77  55  47 NW22G31   29.90R
FORT TOTTEN      N/A     79  55  43 NW13      29.95S
ROLLA          FAIR      73  57  56 W20G30    29.91S
RUGBY          NOT AVBL
 ***** THE ABOVE OBSERVATIONS ARE NON NWS ARE NOT QUALITY
        CONTROLLED AND MAY MIS-REPORT RAIN FOR SNOW...
$$

 *****  OTHER OBSERVATIONS SOUTHEAST NORTH DAKOTA *****

CITY           SKY/WX    TMP DP  RH WIND       PRES   REMARKS
COOPERSTOWN    NOT AVBL
VALLEY CITY    FAIR      77  54  44 W23G32    29.95S
OAKES            N/A     82  54  36 W23G33    29.99R
GWINNER        FAIR      81  54  39 W24G32    29.98R
SHEYENNE NWR     N/A     82  52  34 NW21      29.95
BUFFALO        NOT AVBL
WYNDMERE       NOT AVBL
 ***** THE ABOVE OBSERVATIONS ARE NON NWS ARE NOT QUALITY
       CONTROLLED AND MAY MIS-REPORT RAIN FOR SNOW...
$$

  *****  WEATHER ACROSS NORTHERN MINNESOTA  *****

CITY           SKY/WX    TMP DP  RH WIND       PRES   REMARKS
FLAG ISLAND    PTSUNNY   72  55  56 W22G29    29.66R
WARROAD        SUNNY     75  59  57 W16G30    29.72R
ROSEAU         MOSUNNY   75  57  53 W22G37    29.73R
HALLOCK        MOSUNNY   79  50  36 NW20G33   29.77R
THF RVR FALLS  MOSUNNY  N/A N/A N/A W28G40    29.81R
HALSTAD        NOT AVBL
FOSSTON        PTSUNNY   73  52  46 W22G31    29.85R
BAUDETTE       CLOUDY    73  55  53 W22G31    29.71R
WASKISH        PTSUNNY   75  57  53 W26G35    29.76R
CROOKSTON      SUNNY     81  54  39 NW25G36   29.84R
$$
  *****  WEATHER ACROSS CENTRAL AND WEST MINNESOTA  *****

CITY           SKY/WX    TMP DP  RH WIND       PRES   REMARKS
BEMIDJI        PTSUNNY   76  53  45 W25G37    29.82R
PARK RAPIDS    PTSUNNY   79  52  38 W25G44    29.87R
WADENA         MOSUNNY   79  54  41 W17G32    29.90S
DETROIT LAKES  SUNNY     77  50  38 W21G31    29.92R
MOORHEAD       MOSUNNY   79  55  44 W23       29.91S
FERGUS FALLS   SUNNY     79  54  41 W22G35    29.92S
ELBOW LAKE     FAIR      77  54  45 W17G29    29.95S
MORRIS MN      MOSUNNY   81  55  41 W18G31    29.96S
STAPLES        PTSUNNY   77  50  38 W24G33    29.90S
WHEATON        SUNNY     79  52  38 W22G30    29.98R
$$
  *****  WEATHER ELSEWHERE ACROSS MINNESOTA  *****

CITY           SKY/WX    TMP DP  RH WIND       PRES   REMARKS
DULUTH         PTSUNNY   73  56  54 W12G25    29.80R
INTRNTL FALLS  CLOUDY    67  57  70 W12G18    29.70R
ELY            CLOUDY    66  55  68 W21G33    29.75R
CLOQUET        PTSUNNY   77  48  36 W16G24    29.82R
BRAINERD       PTSUNNY   77  53  43 W16G26    29.87S
HIBBING        LGT RAIN  72  56  57 W9G17     29.78R
ALEXANDRIA     MOSUNNY   79  52  38 W23G40    29.96S
SAINT CLOUD    PTSUNNY   80  53  39 W26G38    29.92S
MINNEAPOLIS    MOSUNNY   82  54  37 W26G36    29.93F
$$

  *****  WEATHER ACROSS SOUTH DAKOTA  *****

CITY           SKY/WX    TMP DP  RH WIND       PRES   REMARKS
SIOUX FALLS    MOSUNNY   82  52  35 NW14G24   30.09F
BROOKINGS      SUNNY     81  54  39 W22G29    30.08S
WATERTOWN      SUNNY     81  50  33 W24G32    30.05S
HURON          SUNNY     85  48  27 W21G26    30.06F
SISSETON         N/A     81  51  35 NW25G37   29.96S
ABERDEEN       MOSUNNY   84  48  28 W24G35    30.02F
MITCHELL       SUNNY     86  47  25 NW16G26   30.09F
PIERRE         SUNNY     87  38  17 W22G33    30.09F
MOBRIDGE       SUNNY     85  48  27 NW21G26   30.05F
RAPID CITY     SUNNY     82  47  29 N8        30.20F
$$

  *****  SOME WEATHER IN NEARBY STATES *****

CITY           SKY/WX    TMP DP  RH WIND       PRES   REMARKS
GLASGOW MT     NOT AVBL
GREAT FALLS MT SUNNY     80  35  19 SW7       30.18S
CHEYENNE WY    SUNNY     79  47  32 E7        30.33F
SCOTTSBLUFF NE SUNNY     85  49  28 S10G20    30.22F
OMAHA NE       MOSUNNY   85  56  37 NW8       30.15S
DES MOINES IA  MOSUNNY   85  51  31 NW15      30.11F
DAVENPORT IA   SUNNY     82  60  47 W8        30.06F
CHICAGO IL     MOSUNNY   86  52  30 NW18G25   29.96F
EAU CLAIRE WI  SUNNY     82  53  36 W22G32    29.91S
LA CROSSE WI   SUNNY     84  51  31 W25G31    29.94F
$$

  *****  SOME NATIONAL WEATHER *****

CITY           SKY/WX    TMP DP  RH WIND       PRES   REMARKS
LA GUARDIA NY  PTSUNNY   92  63  38 S14G20    29.91S HX  93
RALEIGH NC     MOSUNNY   91  69  48 VRB6      29.97F HX  96
ATLANTA GA     PTSUNNY   87  73  62 SE12      29.96S HX  94
NEW ORLEANS LA MOSUNNY   99  68  36 N5        29.95F HX 104
OKLAHOMA CITY  MOSUNNY   96  70  42 SE9       30.04S HX 102
ALBUQUERQUE NM TSTM      69  63  81 SE6       30.30R
SALT LAKE CITY MOSUNNY   83  32  16 N7        30.26F
LOS ANGELES CA MOSUNNY   74  64  71 W15       29.95F
BOISE ID       SUNNY     86  29  12 E7        30.20F
SEATTLE WA     SUNNY     86  51  29 N8        30.16F
$$

*** WEATHER ACROSS MANITOBA...SASKATCHEWAN AND ONTARIO ***
                ***ONTARIO***

CITY           SKY/WX    TMP DP  RH WIND       PRES   REMARKS
GERALDTON      CLOUDY    70  55  60 SW16G26   29.54
THUNDER BAY    PTSUNNY   75  59  57 W18G31    29.61R
SIOUX LOOKOUT  LGT RAIN  66  63  88 W12G28    29.49R
TORONTO        MOSUNNY   88  63  42 SE13      29.87F
BIG TROUT LK   PTSUNNY   66  61  82 SW6       29.25F
PICKLE LAKE    PTSUNNY   68  59  73 W18G29    29.35S
DRYDEN         LGT RAIN  64  59  82 W21G35    29.57
KENORA         LGT RAIN  64  59  82 W14G26    29.63S
$$
                *** MANITOBA***

CITY           SKY/WX    TMP DP  RH WIND       PRES   REMARKS
BRANDON        PTSUNNY   77  57  50 NW21G35   29.85R
DAUPHIN        SUNNY     77  48  36 NW21G31   29.78R
ISLAND LAKE    LGT RAIN  64  63  94 NE6       29.35R
PILOT MOUND      N/A     75  54  46 NW21G30     N/A
THE PAS        PTSUNNY   73  57  56 NW10G21   29.73R
THOMPSON       LGT RAIN  61  57  88 N13G18    29.65R
WINNIPEG       MOSUNNY   75  55  50 NW30G39   29.72R
LYNN LAKE        N/A    N/A N/A N/A MISG        N/A
CHURCHILL      LGT RAIN  50  50 100 N16G23    29.61  FOG
GILLAM         DRIZZLE   55  54  94 N25G33    29.49R
$$
                ***SASKATCHEWAN***

CITY           SKY/WX    TMP DP  RH WIND       PRES   REMARKS
ESTEVAN        MOSUNNY   79  50  36 W22G31    29.99S
KINDERSLEY     PTSUNNY   75  43  31 NW13      30.03S
LLOYDMINSTER   MOSUNNY   73  45  35 W18G26    30.00F
PRINCE ALBERT  MOSUNNY   77  54  44 W18G26    29.86S
REGINA         MOSUNNY   77  54  44 NW23      29.99



USA.gov is the U.S. government's official web portal to all federal, state and local government web resources and services.